Theta_e
324 313 308 310 300 297 294 298 303 306 307 311 315 318 320 321 321 314 336 347 354 356 359 361 363 363 362 361 360 359 359 359 360 359 359 359 359 360 361 361 361 361 358 358 355 354 356 355 355
317 312 311 304 295 290 295 300 303 306 311 312 314 327 327 324 329 332 341 350 354 357 358 359 363 362 362 360 359 359 359 359 359 359 358 359 359 361 362 361 362 359 358 356 354 353 355 355 354
313 311 305 300 292 291 295 301 304 308 311 310 311 333 328 326 333 335 343 351 355 356 356 358 363 362 361 360 360 359 359 358 359 359 358 358 359 360 360 361 361 359 356 354 353 353 353 353 353
302 301 300 294 292 297 301 303 304 306 310 311 312 311 336 342 343 336 351 353 354 355 356 361 362 362 361 360 360 359 359 359 359 359 359 358 357 359 360 360 360 359 356 354 353 353 353 353 352
299 295 289 288 292 298 304 305 305 304 307 309 310 311 331 338 349 349 350 352 353 353 356 358 361 362 361 360 359 360 359 358 359 360 359 358 359 359 359 360 360 359 357 354 353 354 355 354 353
294 291 284 286 291 300 303 306 305 304 306 308 308 330 330 340 346 347 348 350 354 355 359 359 361 361 360 360 359 359 358 358 359 359 359 360 359 360 359 359 358 358 357 356 354 355 354 353 352
293 288 284 284 288 293 298 304 302 303 304 303 309 328 332 337 342 348 351 352 354 356 356 357 357 360 360 359 358 358 358 358 358 358 358 359 359 360 359 358 357 356 356 356 356 355 354 352 352
296 290 284 286 289 289 297 301 303 300 302 308 325 325 325 335 345 347 349 349 349 352 352 351 355 357 357 355 359 359 358 358 358 358 358 358 358 359 359 356 356 356 355 355 355 354 354 353 352
296 286 283 286 289 290 297 296 303 306 302 304 334 335 336 341 343 342 343 344 347 349 350 349 351 353 355 354 356 358 358 358 358 358 358 355 351 352 354 354 355 357 356 354 354 354 353 352 352
291 285 288 293 294 292 296 296 299 301 302 301 329 336 339 340 341 338 340 339 340 343 346 351 351 350 353 356 354 352 354 354 352 352 352 349 347 347 351 353 355 356 356 355 354 353 353 351 341
290 289 292 294 296 297 297 296 299 298 298 302 319 332 337 338 337 338 339 340 341 345 347 349 350 352 352 352 352 353 353 352 351 350 349 346 347 346 348 346 348 346 352 346 348 345 344 341 339
287 291 294 293 297 295 296 300 298 298 299 304 307 334 336 335 336 336 336 336 334 343 346 348 350 351 352 352 350 352 353 351 350 350 348 344 342 340 341 341 341 341 342 342 340 340 339 338 337
288 292 295 296 295 295 297 297 299 299 302 304 309 332 334 335 335 335 334 335 333 332 343 346 348 348 350 350 351 350 350 349 349 347 347 345 340 337 338 338 338 339 341 340 338 338 337 336 336
292 293 295 295 295 294 294 296 298 301 303 303 326 332 335 334 334 330 331 332 331 333 340 344 344 346 344 347 346 348 349 347 345 344 345 345 342 340 337 337 338 338 340 341 341 339 337 337 336
293 290 292 292 293 292 295 293 295 301 301 301 320 326 329 332 333 332 332 331 332 332 336 339 338 340 339 342 342 343 341 342 341 341 342 345 342 338 339 338 337 340 340 340 340 339 337 336 337
290 288 286 290 293 294 295 289 296 300 300 299 306 323 326 326 330 332 332 330 333 333 334 338 342 340 340 341 340 340 341 340 340 340 340 342 344 341 337 338 339 340 340 341 338 338 338 338 339
288 284 284 289 293 294 292 288 297 299 299 299 299 310 322 323 325 325 328 329 331 333 330 337 339 339 339 339 341 340 338 338 337 337 341 346 347 347 343 340 340 343 340 341 341 338 339 337 336
285 284 287 288 291 291 289 288 294 297 298 299 298 298 313 321 325 327 328 331 330 331 331 330 338 337 337 339 337 337 336 336 337 337 337 339 339 340 339 342 344 346 343 340 337 333 333 333 333
293 290 288 289 294 291 288 289 292 294 295 296 298 297 298 320 326 328 329 331 325 325 327 326 331 334 338 337 334 331 331 334 336 337 339 337 336 338 337 334 336 340 343 340 337 335 333 331 334
294 290 287 291 294 290 289 289 292 293 293 296 298 299 298 299 310 325 328 326 321 324 326 327 329 331 337 337 330 330 329 331 333 333 335 335 334 333 332 331 335 337 332 336 337 334 333 333 334
293 290 288 289 292 292 290 288 290 294 294 296 297 299 300 299 301 319 321 320 321 321 323 327 328 329 332 330 325 325 327 325 325 325 330 333 335 335 335 335 332 333 337 336 340 337 334 332 332
290 295 293 292 288 282 290 281 287 291 293 295 295 295 298 299 300 315 319 317 319 321 324 325 326 326 327 326 322 321 321 322 324 322 329 333 336 340 339 337 335 334 335 336 338 337 334 332 329
293 298 294 293 288 284 286 283 287 290 292 296 299 300 297 298 298 307 316 318 319 317 319 325 328 327 325 325 324 322 319 323 326 322 322 324 332 332 340 339 340 335 333 337 334 333 335 335 330
299 295 293 291 285 279 284 284 284 287 291 296 301 303 306 308 309 307 312 315 315 324 329 328 327 327 327 328 325 322 323 324 325 324 324 327 330 326 326 328 331 335 334 334 332 330 329 329 329
297 290 280 277 276 277 286 284 285 297 301 300 300 304 309 310 311 315 315 315 319 322 321 321 319 317 318 318 319 318 317 316 316 316 321 320 320 321 319 321 322 323 324 324 326 326 327 327 324
293 288 278 275 276 279 287 282 290 301 303 306 308 309 310 310 311 312 313 315 316 316 316 315 314 313 314 314 314 314 314 314 314 314 315 314 315 315 316 316 316 317 318 318 318 317 318 318 317
293 288 289 284 285 282 289 294 298 303 302 305 306 308 308 309 310 311 312 312 312 312 312 312 312 312 313 313 313 313 313 314 314 314 314 314 313 316 314 314 312 314 314 313 313 312 312 312 312
294 294 284 284 279 277 287 289 289 296 299 302 303 305 307 309 310 310 311 311 311 311 310 310 310 310 310 311 311 311 312 312 314 313 312 312 312 310 310 311 310 309 309 310 307 306 309 307 307
293 289 288 288 286 280 280 288 299 298 299 301 301 302 303 305 305 306 306 306 305 304 303 303 304 305 305 307 306 307 307 309 309 308 307 306 306 305 305 306 306 306 305 304 303 303 305 305 303
295 289 288 283 285 286 284 287 301 301 302 303 303 303 303 303 301 300 300 301 301 301 301 301 301 302 302 304 304 304 305 306 305 305 304 304 303 303 303 303 303 304 304 303 302 302 302 303 301
Wind_Speed
6 6 1 4 3 5 5 9 3 5 5 3 8 5 8 6 6 6 2 8 16 17 14 15 18 18 19 18 17 17 17 18 18 17 16 16 16 16 16 15 15 14 14 14 13 13 12 11 11
4 2 4 3 5 2 8 5 13 3 7 9 12 2 0 3 5 3 11 10 20 16 13 13 18 18 19 19 17 17 16 16 16 15 15 14 14 14 14 13 13 14 14 13 13 12 12 10 10
3 2 4 4 5 8 9 5 5 3 10 6 6 4 6 5 5 6 1 13 15 12 10 12 17 16 17 18 16 16 16 15 16 15 14 13 12 12 11 11 12 13 13 12 11 11 10 8 7
2 4 5 3 9 12 13 4 4 6 9 3 5 9 6 2 7 5 15 14 12 10 8 14 16 15 17 18 17 16 16 15 15 14 14 13 11 10 10 10 10 10 11 11 10 9 7 7 5
4 3 2 3 8 9 7 2 2 3 7 11 6 7 2 6 10 11 17 12 10 7 6 9 14 14 16 17 15 15 14 14 14 13 14 13 11 9 8 8 9 9 10 11 10 9 7 6 5
3 4 2 9 9 14 5 4 2 3 6 9 6 3 4 4 6 11 12 11 10 10 8 6 11 11 13 15 15 14 13 12 13 13 12 12 10 9 8 8 7 8 9 9 9 8 7 7 6
5 4 7 5 6 12 5 4 5 6 7 3 4 5 2 2 4 13 15 13 11 10 9 7 9 7 8 11 16 16 13 11 10 10 11 11 10 9 8 8 7 7 7 8 8 7 7 7 6
4 4 4 7 7 7 4 5 1 3 9 3 3 5 6 5 13 14 17 15 11 7 6 7 7 6 4 4 8 10 15 15 12 10 10 10 10 10 9 8 7 7 8 8 8 8 7 7 6
4 2 5 6 8 7 4 2 1 2 7 5 5 5 2 17 15 16 16 15 12 9 5 2 6 8 7 5 6 8 10 10 13 12 11 8 4 5 7 8 9 9 9 9 9 9 9 9 8
5 6 9 7 6 3 5 3 3 5 11 4 4 9 13 13 11 16 16 15 13 14 13 7 6 6 8 8 7 5 6 4 4 4 4 3 3 3 5 7 9 9 9 9 8 9 9 8 4
7 9 5 5 4 7 6 6 5 5 11 2 4 10 11 8 7 10 13 19 19 20 13 16 16 13 11 8 6 5 5 5 4 6 5 4 3 3 3 2 2 3 7 3 5 5 4 5 4
6 6 6 4 5 4 3 4 7 9 10 6 5 18 17 15 12 12 8 8 6 12 20 16 15 13 10 6 7 9 7 7 7 7 6 4 3 3 3 2 3 3 3 5 4 3 5 5 5
5 4 6 7 7 8 9 13 12 20 8 9 7 15 20 16 9 3 1 3 5 3 5 10 11 11 10 8 6 7 7 8 6 4 6 5 4 5 3 4 3 4 4 4 4 5 5 5 5
6 13 15 6 10 6 6 9 7 11 9 10 8 10 14 12 10 3 4 6 6 6 10 11 13 12 10 7 6 5 5 5 3 5 4 6 6 6 5 4 5 4 4 4 5 6 5 7 5
6 8 6 6 7 8 7 14 23 7 6 8 8 9 11 11 11 16 13 11 8 5 6 9 9 8 8 9 7 6 5 6 5 3 5 6 5 6 6 6 6 6 4 6 4 5 5 5 4
5 5 11 4 8 9 11 18 11 8 10 11 9 6 10 11 15 8 8 5 4 7 9 9 9 9 8 8 7 5 5 5 5 5 5 6 5 5 4 5 5 4 4 5 4 6 5 6 5
4 3 4 4 11 8 11 3 10 8 9 8 8 8 8 6 7 8 8 7 7 5 6 12 12 12 9 7 6 6 6 5 4 3 4 3 4 5 5 5 5 5 3 4 4 3 3 3 2
5 4 5 7 4 7 7 5 10 7 8 10 9 8 9 9 15 14 12 9 7 6 5 5 7 8 9 6 4 2 1 2 6 6 5 6 7 8 5 4 4 6 4 5 4 4 4 3 4
6 6 5 5 7 6 6 5 11 10 6 6 8 7 8 11 16 9 11 8 6 7 8 7 8 9 9 6 5 4 5 5 2 1 4 8 3 3 4 2 2 3 5 8 6 4 5 5 4
15 11 5 4 5 3 7 9 10 7 6 8 10 8 10 5 6 11 10 10 9 10 7 8 10 9 9 6 2 3 3 1 2 0 3 4 2 6 5 4 3 3 4 12 9 7 4 5 4
17 14 6 6 4 2 2 9 5 8 5 5 7 8 5 13 12 11 9 12 11 11 12 12 9 10 10 5 5 4 4 4 2 3 3 5 9 9 6 7 7 5 3 14 16 9 6 3 2
20 10 8 9 2 3 4 6 7 6 6 1 8 7 10 9 7 9 11 8 11 16 11 8 4 4 5 5 6 5 4 4 4 2 1 4 6 4 4 3 6 5 7 16 14 4 2 1 4
12 12 10 9 5 0 2 3 9 3 4 3 4 7 8 6 10 15 15 17 11 6 5 7 8 7 6 7 5 3 1 3 2 2 2 3 4 2 7 2 4 4 7 8 6 3 4 8 4
7 7 7 3 5 5 6 7 8 2 5 3 4 9 10 8 8 6 3 6 8 8 8 9 10 8 4 5 5 5 2 3 4 5 2 2 3 4 7 6 4 2 2 5 4 5 6 3 2
15 10 3 2 4 6 10 5 3 8 8 4 8 8 9 10 11 11 12 8 9 12 11 10 12 12 11 12 12 10 9 9 8 7 5 4 5 4 6 5 6 5 5 6 4 5 4 4 1
18 10 7 6 6 5 7 6 2 4 3 8 12 10 10 13 10 14 13 13 14 14 15 14 15 14 12 12 11 10 9 5 5 8 5 6 5 2 2 4 5 5 4 4 3 3 3 4 4
11 15 10 5 1 6 6 3 4 5 10 12 13 13 11 11 12 14 14 14 13 12 11 12 13 11 9 10 9 8 7 5 6 7 7 5 5 6 6 6 5 6 6 6 6 4 5 4 4
10 11 7 2 4 4 1 4 6 2 7 9 11 12 11 11 14 14 13 12 12 10 9 9 10 10 9 8 7 6 6 6 6 5 6 6 6 4 5 5 6 7 6 6 4 4 3 5 3
9 8 5 8 3 7 5 2 4 4 4 13 10 7 7 10 11 12 12 10 9 8 9 8 9 8 7 7 6 6 7 6 7 8 7 5 4 5 5 6 6 5 5 5 5 6 4 4 2
6 6 7 6 4 3 5 2 1 4 3 6 10 10 8 11 10 12 12 13 12 11 10 9 8 9 6 6 7 7 8 9 9 7 5 6 7 6 6 5 5 5 5 6 5 6 5 4 5
Wind_Direction
303 303 310 35 46 59 267 253 243 300 311 360 318 258 191 175 170 213 274 140 134 148 156 152 150 145 137 134 129 125 124 124 126 128 129 129 131 132 132 131 130 135 139 139 136 132 131 133 130
303 334 38 83 110 142 259 237 241 319 281 330 307 280 291 344 31 86 118 152 148 151 155 152 153 149 141 135 132 130 128 127 124 125 126 126 126 128 130 130 132 139 141 142 141 139 138 140 138
292 58 103 147 166 195 235 210 106 321 307 331 298 25 358 358 17 162 33 143 136 142 149 151 149 147 138 133 133 133 131 131 130 129 130 130 131 130 129 132 140 145 145 146 146 144 142 142 139
41 17 29 145 207 244 228 151 25 359 318 136 352 314 89 108 312 174 127 131 128 129 139 151 144 148 139 134 138 138 137 138 137 136 137 136 138 137 136 140 149 149 151 149 150 147 149 145 142
34 56 121 230 249 252 242 253 94 293 282 286 359 283 43 12 57 82 112 119 115 97 111 142 140 146 141 136 141 141 142 144 145 144 145 146 147 147 147 154 159 157 159 157 159 161 162 161 173
60 99 112 218 232 251 269 242 186 236 274 302 348 9 309 345 96 101 97 102 102 103 99 121 130 143 144 142 147 148 147 148 148 148 151 150 152 155 163 167 168 169 165 169 173 173 176 183 202
152 120 213 212 242 262 243 230 219 251 262 339 226 166 265 3 289 115 100 90 88 106 111 132 145 144 152 158 158 152 147 149 153 153 156 160 163 169 174 178 178 181 178 178 184 189 194 202 220
143 131 200 222 209 260 271 195 111 309 278 289 145 213 228 188 133 113 107 103 91 75 93 131 134 140 134 142 161 161 157 156 156 162 165 174 174 181 188 192 198 194 192 191 193 203 217 224 232
131 204 223 211 173 233 242 138 140 281 264 5 358 254 129 149 140 119 117 117 119 118 103 102 158 155 159 155 171 159 170 169 163 166 170 173 183 194 201 204 209 205 209 206 204 208 215 226 236
169 203 212 199 197 256 266 309 322 292 301 347 41 70 120 161 154 140 145 143 150 153 159 174 182 183 172 164 154 142 159 143 149 160 172 165 178 206 204 215 222 223 222 222 221 226 229 232 233
207 234 208 248 200 219 254 292 233 257 282 269 163 167 164 188 175 170 166 162 170 166 166 177 171 184 179 178 172 158 157 153 162 169 173 174 184 208 223 222 226 229 238 238 237 246 234 233 225
229 206 213 247 215 254 245 257 275 211 243 238 214 187 183 186 198 185 179 191 172 189 168 176 176 173 190 167 166 171 173 175 184 185 171 166 178 208 232 236 232 237 230 236 236 246 250 248 249
227 242 219 223 248 247 264 264 273 264 256 274 271 180 194 197 200 279 72 54 100 106 162 169 166 167 177 160 166 178 181 174 182 166 178 173 174 203 201 227 224 234 227 224 231 241 256 257 254
217 206 237 235 254 250 254 265 228 274 214 239 177 170 200 202 180 154 193 189 172 158 176 172 179 182 163 155 153 179 191 166 151 169 197 190 194 207 203 207 220 234 232 248 234 230 238 246 235
249 274 279 231 226 232 205 265 253 253 197 216 211 176 168 188 174 202 194 186 178 174 165 167 139 147 152 153 164 164 203 127 158 198 169 204 208 232 214 210 214 225 217 230 247 251 237 249 240
187 159 250 211 193 240 164 253 280 232 195 219 211 204 170 181 202 219 195 205 221 161 173 156 165 163 150 160 158 157 166 150 155 173 162 204 201 211 242 265 248 235 219 230 221 235 245 245 231
283 201 183 266 194 215 177 145 256 196 176 197 197 198 207 186 180 209 213 201 204 233 194 172 174 171 157 148 157 163 162 154 151 113 106 142 214 219 202 211 232 229 211 232 225 232 214 221 262
208 193 221 211 229 212 241 217 268 258 219 214 213 201 192 196 213 203 204 201 190 190 221 213 177 158 147 138 115 92 244 231 166 159 148 168 204 201 211 223 210 234 100 272 233 215 235 245 242
217 225 210 190 239 199 243 230 255 257 240 232 224 196 210 194 217 207 207 196 174 188 200 201 185 179 164 162 158 158 186 227 211 300 199 202 167 257 246 196 317 16 318 259 228 235 240 246 215
228 237 213 269 264 172 278 268 257 260 231 211 224 206 199 228 219 201 187 184 191 207 213 205 198 187 189 181 150 144 149 182 21 80 206 205 155 235 255 246 180 73 27 305 238 224 234 253 171
212 215 166 199 12 278 0 306 296 274 220 214 244 242 198 184 202 213 189 193 188 196 203 211 208 188 191 157 89 47 55 34 342 250 235 237 238 244 226 208 205 153 133 248 253 217 229 268 32
213 175 192 233 119 215 115 272 304 260 230 206 249 245 244 177 189 207 198 191 194 214 208 193 148 94 88 111 102 114 148 174 207 197 192 230 219 240 262 259 145 144 186 241 256 229 269 262 277
209 177 194 222 174 325 244 46 270 301 115 205 251 270 278 288 182 188 194 201 199 107 97 75 86 99 116 115 140 149 225 270 119 117 303 333 292 315 336 297 273 183 222 232 234 220 168 219 189
136 159 199 165 114 241 204 155 281 356 313 202 84 32 23 6 26 78 193 133 111 104 98 89 81 46 79 108 132 133 22 15 25 9 139 3 24 36 39 25 34 317 228 246 256 180 157 228 234
177 153 172 195 192 211 157 147 237 308 303 310 98 53 27 30 41 52 65 75 92 91 88 88 91 70 58 59 58 63 65 64 58 47 39 62 68 36 24 31 34 24 12 358 11 61 59 84 298
190 152 162 169 152 160 141 199 247 309 360 67 80 83 62 61 62 65 66 78 79 84 90 91 85 81 70 70 69 67 56 45 69 73 67 35 352 15 33 52 65 53 33 30 18 59 49 49 16
185 197 199 68 288 107 145 114 106 48 51 61 71 74 70 73 73 75 75 77 82 76 75 90 92 89 89 85 74 61 70 52 44 53 76 60 356 342 355 359 28 40 39 31 29 25 34 38 28
165 166 174 114 177 125 156 127 148 100 90 87 83 88 86 84 79 77 76 73 74 72 68 69 80 91 95 96 94 95 88 60 47 58 47 77 55 1 1 5 13 23 13 15 25 34 55 57 33
202 184 162 133 145 147 132 188 167 169 153 129 121 101 100 91 81 83 83 76 73 70 64 61 60 72 68 73 84 91 83 78 70 62 54 44 47 25 17 14 11 12 7 355 7 0 11 12 13
144 198 156 151 212 54 116 235 96 153 132 135 121 117 105 94 84 91 83 84 81 76 70 68 68 68 65 69 63 55 65 61 62 46 39 30 30 1 2 0 350 343 344 348 352 339 334 322 352